"SCET";"TARGET";"ELECTRON_DENSITY";"ERROR_FLAG";"ELECTRON_DENSITY_ERROR";"FREQ_FCE";"MEASURED_VALUE";"MEASURED_ITEM";"FREQ_PLASMA";"FREQ_UPPER_HYBRID";"FREQ_R_EQUALS_ZERO";"FREQ_L_EQUALS_ZERO";"ORBIT_NUMBER";"SATURN_RADIUS";"SATURN_IAU_LONGITUDE";"SATURN_SLS4_S_LONGITUDE";"SATURN_SLS4_N_LONGITUDE";"SATURN_SLS5_S_LONGITUDE";"SATURN_SLS5_N_LONGITUDE";"SATURN_LOCAL_TIME";"SATURN_KRONOGRAPHIC_LATITUDE";"SATURN_MAGNETIC_LATITUDE";"SATURN_L";"SATURN_L_OFFSET";"SATURN_SOLAR_EQUATORIAL_X";"SATURN_SOLAR_EQUATORIAL_Y";"SATURN_SOLAR_EQUATORIAL_Z";"SATURN_ALTITUDE";"ENCELADUS_ENCOUNTER_NUMBER";"ENCELADUS_RADIUS";"ENCELADUS_COROTATIONAL_X";"ENCELADUS_COROTATIONAL_Y";"ENCELADUS_COROTATIONAL_Z";"ENCELADUS_TRUE_ANOMALY";"ENCELADUS_PERIAPSIS_TIME";"JUPITER_RADIUS";"JUPITER_SYSTEMIII_LONGITUDE";"JUPITER_MAGNETIC_LATITUDE";"JUPITER_MAGNETIC_LOCAL_TIME";"JUPITER_L";"IO_PHASE";"EARTH_RADIUS";"EARTH_MAGNETIC_LATITUDE";"EARTH_LOCAL_TIME";"EARTH_L"
"[UTC]";"[0=Saturn, 1=Enceladus, 2=Jupiter, 3=Earth]";"[cm-3]";"[0=automated, 1=manual]";"[normalized density error]";"[Hz]";"[Hz]";"[0=upper hybrid frequency, 1=plasma frequency cutoff]";"[Hz]";"[Hz]";"[Hz]";"[Hz}";"[0, A, B, C, 3, 4, ... , 292, 293]";"[Rs where 1Rs=60268km]";"[degrees]";"[degrees]";"[degrees]";"[degrees]";"[degrees]";"[hours]";"[degrees]";"[degrees where offset=2293km north]";"[Rs where 1Rs=60268km]";"[Rs where 1Rs=60268km and offset=2293km north]";"[Rs where 1Rs=60268km]";"[Rs where 1Rs=60268km]";"[Rs where 1Rs=60268km]";"[km where ellipsoid a,b=60268km and c=54364km]";"[E0, E1, E2, ... , E21, E22]";"[Renc where 1Renc=252.1km]";"[Renc where 1Renc=252.1km]";"[Renc where 1Renc=252.1km]";"[Renc where 1Renc=252.1km]";"[degrees]";"[UTC]";"[Rj where 1Rj=71492km]";"[degrees]";"[degrees using JRM09 model]";"[hours using JRM09 model]";"[Rj where 1Rj=71492km]";"[degrees]";"[Re where 1Re=6378.1366km]";"[degrees]";"[hours]";"[Re where 1Re=6378.1366km]"
2015-09-09T00:00:14.041Z;0;6.3160e+01;0;     0.065;  4662.952;  71518.367; 0;  71366.195;  71518.367;  73735.742;  69072.789;221;   4.915;  31.754;;; 316.214; 159.512;  17.198;   0.319;  -0.125;   4.915;   4.909;   1.024;   4.807;   0.027;;;;;;;;;;;;;;;;;;
2015-09-09T00:00:30.041Z;0;6.2990e+01;0;     0.064;  4662.952;  71424.227; 0;  71271.852;  71424.227;  73641.453;  68978.500;221;   4.915;  31.858;;; 316.317; 159.614;  17.201;   0.319;  -0.125;   4.916;   4.910;   1.020;   4.808;   0.027;;;;;;;;;;;;;;;;;;
2015-09-09T00:00:46.041Z;0;6.3190e+01;0;     0.066;  4662.952;  71538.367; 0;  71386.234;  71538.367;  73755.773;  69092.820;221;   4.916;  31.962;;; 316.420; 159.716;  17.204;   0.319;  -0.125;   4.916;   4.911;   1.017;   4.810;   0.027;;;;;;;;;;;;;;;;;;
2015-09-09T00:01:02.041Z;0;6.3010e+01;0;     0.069;  4651.444;  71431.227; 0;  71279.617;  71431.227;  73643.273;  68991.828;221;   4.917;  32.066;;; 316.523; 159.818;  17.207;   0.319;  -0.125;   4.917;   4.912;   1.013;   4.812;   0.027;;;;;;;;;;;;;;;;;;
2015-09-09T00:01:18.041Z;0;6.3260e+01;0;     0.068;  4651.444;  71573.602; 0;  71422.297;  71573.602;  73785.875;  69134.430;221;   4.918;  32.171;;; 316.627; 159.919;  17.210;   0.318;  -0.125;   4.918;   4.913;   1.009;   4.813;   0.027;;;;;;;;;;;;;;;;;;
2015-09-09T00:01:34.040Z;0;6.3100e+01;0;     0.066;  4651.444;  71485.273; 0;  71333.781;  71485.273;  73697.406;  69045.961;221;   4.919;  32.275;;; 316.730; 160.021;  17.213;   0.318;  -0.125;   4.919;   4.913;   1.005;   4.815;   0.027;;;;;;;;;;;;;;;;;;
2015-09-09T00:01:50.040Z;0;6.2990e+01;0;     0.069;  4651.444;  71419.773; 0;  71268.141;  71419.773;  73631.805;  68980.359;221;   4.919;  32.379;;; 316.833; 160.122;  17.217;   0.318;  -0.125;   4.920;   4.914;   1.002;   4.816;   0.027;;;;;;;;;;;;;;;;;;
2015-09-09T00:02:06.040Z;0;6.3050e+01;0;     0.069;  4641.448;  71458.531; 0;  71307.633;  71458.531;  73666.109;  69024.664;221;   4.920;  32.483;;; 316.937; 160.224;  17.220;   0.318;  -0.125;   4.920;   4.915;   0.998;   4.818;   0.027;;;;;;;;;;;;;;;;;;
2015-09-09T00:02:22.040Z;0;6.3170e+01;0;     0.069;  4641.448;  71521.469; 0;  71370.703;  71521.469;  73729.148;  69087.703;221;   4.921;  32.587;;; 317.040; 160.325;  17.223;   0.318;  -0.125;   4.921;   4.916;   0.994;   4.820;   0.027;;;;;;;;;;;;;;;;;;
2015-09-09T00:02:38.040Z;0;6.2990e+01;0;     0.068;  4641.448;  71421.734; 0;  71270.758;  71421.734;  73629.258;  68987.812;221;   4.922;  32.691;;; 317.143; 160.427;  17.226;   0.318;  -0.125;   4.922;   4.917;   0.991;   4.821;   0.027;;;;;;;;;;;;;;;;;;
2015-09-09T00:02:54.040Z;0;6.3260e+01;0;     0.068;  4641.448;  71574.344; 0;  71423.688;  71574.344;  73782.109;  69140.656;221;   4.923;  32.795;;; 317.247; 160.528;  17.229;   0.318;  -0.125;   4.923;   4.917;   0.987;   4.823;   0.027;;;;;;;;;;;;;;;;;;
2015-09-09T00:03:10.040Z;0;6.3110e+01;0;     0.066;  4632.516;  71486.992; 0;  71336.734;  71486.992;  73690.586;  69058.070;221;   4.923;  32.900;;; 317.350; 160.629;  17.232;   0.317;  -0.125;   4.924;   4.918;   0.983;   4.824;   0.027;;;;;;;;;;;;;;;;;;
2015-09-09T00:03:26.040Z;0;6.3330e+01;0;     0.069;  4632.516;  71611.445; 0;  71461.453;  71611.445;  73815.234;  69182.719;221;   4.924;  33.004;;; 317.454; 160.730;  17.235;   0.317;  -0.125;   4.924;   4.919;   0.979;   4.826;   0.027;;;;;;;;;;;;;;;;;;
2015-09-09T00:03:42.040Z;0;6.3200e+01;0;     0.069;  4632.516;  71537.430; 0;  71387.281;  71537.430;  73741.102;  69108.586;221;   4.925;  33.108;;; 317.557; 160.832;  17.238;   0.317;  -0.125;   4.925;   4.920;   0.976;   4.827;   0.027;;;;;;;;;;;;;;;;;;
2015-09-09T00:03:58.040Z;0;6.2840e+01;0;     0.068;  4632.516;  71337.594; 0;  71187.023;  71337.594;  73540.953;  68908.438;221;   4.926;  33.212;;; 317.660; 160.933;  17.241;   0.317;  -0.126;   4.926;   4.921;   0.972;   4.829;   0.027;;;;;;;;;;;;;;;;;;
2015-09-09T00:04:14.039Z;0;6.2980e+01;0;     0.069;  4625.264;  71415.781; 0;  71265.844;  71415.781;  73615.992;  68990.727;221;   4.927;  33.316;;; 317.764; 161.034;  17.244;   0.317;  -0.126;   4.927;   4.922;   0.968;   4.831;   0.027;;;;;;;;;;;;;;;;;;
2015-09-09T00:04:30.039Z;0;6.2710e+01;0;     0.070;  4625.264;  71262.555; 0;  71112.297;  71262.555;  73462.523;  68837.258;221;   4.928;  33.421;;; 317.867; 161.135;  17.247;   0.317;  -0.126;   4.928;   4.922;   0.965;   4.832;   0.027;;;;;;;;;;;;;;;;;;
2015-09-09T00:04:46.039Z;0;6.3110e+01;0;     0.068;  4625.264;  71488.250; 0;  71338.469;  71488.250;  73688.570;  69063.312;221;   4.928;  33.525;;; 317.971; 161.236;  17.250;   0.316;  -0.126;   4.928;   4.923;   0.961;   4.834;   0.027;;;;;;;;;;;;;;;;;;
2015-09-09T00:05:02.039Z;0;6.3030e+01;0;     0.067;  4618.880;  71443.508; 0;  71294.047;  71443.508;  73640.883;  69022.000;221;   4.929;  33.629;;; 318.074; 161.336;  17.253;   0.316;  -0.126;   4.929;   4.924;   0.957;   4.835;   0.027;;;;;;;;;;;;;;;;;;
2015-09-09T00:05:18.039Z;0;6.2590e+01;0;     0.070;  4618.880;  71195.930; 0;  71045.945;  71195.930;  73392.914;  68774.031;221;   4.930;  33.734;;; 318.178; 161.437;  17.256;   0.316;  -0.126;   4.930;   4.925;   0.954;   4.837;   0.027;;;;;;;;;;;;;;;;;;
2015-09-09T00:05:34.039Z;0;6.2700e+01;0;     0.066;  4618.880;  71253.742; 0;  71103.883;  71253.742;  73450.812;  68831.938;221;   4.931;  33.838;;; 318.281; 161.538;  17.259;   0.316;  -0.126;   4.931;   4.926;   0.950;   4.839;   0.027;;;;;;;;;;;;;;;;;;
2015-09-09T00:05:50.039Z;0;6.2660e+01;0;     0.068;  4618.880;  71232.500; 0;  71082.594;  71232.500;  73429.539;  68810.656;221;   4.932;  33.942;;; 318.385; 161.639;  17.262;   0.316;  -0.126;   4.932;   4.926;   0.946;   4.840;   0.027;;;;;;;;;;;;;;;;;;
2015-09-09T00:06:06.039Z;0;6.2710e+01;0;     0.070;  4610.088;  71261.906; 0;  71112.633;  71261.906;  73455.023;  68844.938;221;   4.932;  34.047;;; 318.488; 161.739;  17.265;   0.316;  -0.126;   4.933;   4.927;   0.942;   4.842;   0.027;;;;;;;;;;;;;;;;;;
2015-09-09T00:06:22.039Z;0;6.2840e+01;0;     0.067;  4610.088;  71333.656; 0;  71184.531;  71333.656;  73526.883;  68916.797;221;   4.933;  34.151;;; 318.592; 161.840;  17.269;   0.316;  -0.126;   4.933;   4.928;   0.939;   4.843;   0.027;;;;;;;;;;;;;;;;;;
2015-09-09T00:06:38.039Z;0;6.2860e+01;0;     0.067;  4610.088;  71345.430; 0;  71196.328;  71345.430;  73538.680;  68928.594;221;   4.934;  34.255;;; 318.696; 161.940;  17.272;   0.315;  -0.126;   4.934;   4.929;   0.935;   4.845;   0.027;;;;;;;;;;;;;;;;;;
2015-09-09T00:06:54.038Z;0;6.2930e+01;0;     0.070;  4610.088;  71388.422; 0;  71239.414;  71388.422;  73581.734;  68971.648;221;   4.935;  34.360;;; 318.799; 162.041;  17.275;   0.315;  -0.126;   4.935;   4.930;   0.931;   4.846;   0.027;;;;;;;;;;;;;;;;;;
2015-09-09T00:07:10.038Z;0;6.2920e+01;0;     0.069;  4600.372;  71377.680; 0;  71229.273;  71377.680;  73566.594;  68966.219;221;   4.936;  34.464;;; 318.903; 162.141;  17.278;   0.315;  -0.126;   4.936;   4.931;   0.928;   4.848;   0.027;;;;;;;;;;;;;;;;;;
2015-09-09T00:07:26.038Z;0;6.2640e+01;0;     0.068;  4600.372;  71219.070; 0;  71070.336;  71219.070;  73407.734;  68807.359;221;   4.937;  34.569;;; 319.006; 162.242;  17.281;   0.315;  -0.127;   4.937;   4.931;   0.924;   4.849;   0.027;;;;;;;;;;;;;;;;;;
2015-09-09T00:07:42.038Z;0;6.2980e+01;0;     0.067;  4600.372;  71413.883; 0;  71265.555;  71413.883;  73602.852;  69002.477;221;   4.937;  34.673;;; 319.110; 162.342;  17.284;   0.315;  -0.127;   4.938;   4.932;   0.920;   4.851;   0.027;;;;;;;;;;;;;;;;;;
2015-09-09T00:07:58.038Z;0;6.2860e+01;0;     0.066;  4600.372;  71343.773; 0;  71195.297;  71343.773;  73532.633;  68932.258;221;   4.938;  34.777;;; 319.214; 162.442;  17.287;   0.315;  -0.127;   4.938;   4.933;   0.916;   4.853;   0.027;;;;;;;;;;;;;;;;;;
2015-09-09T00:08:30.038Z;0;6.2670e+01;0;     0.067;  4590.404;  71236.312; 0;  71088.258;  71236.312;  73420.500;  68830.102;221;   4.940;  34.986;;; 319.421; 162.642;  17.293;   0.314;  -0.127;   4.940;   4.935;   0.909;   4.856;   0.027;;;;;;;;;;;;;;;;;;
2015-09-09T00:08:46.038Z;0;6.2860e+01;0;     0.067;  4590.404;  71345.492; 0;  71197.664;  71345.492;  73529.852;  68939.445;221;   4.941;  35.091;;; 319.525; 162.742;  17.296;   0.314;  -0.127;   4.941;   4.936;   0.905;   4.857;   0.027;;;;;;;;;;;;;;;;;;
2015-09-09T00:09:02.038Z;0;6.3040e+01;0;     0.068;  4581.080;  71445.852; 0;  71298.828;  71445.852;  73626.156;  69045.078;221;   4.942;  35.196;;; 319.628; 162.842;  17.299;   0.314;  -0.127;   4.942;   4.936;   0.902;   4.859;   0.027;;;;;;;;;;;;;;;;;;
2015-09-09T00:09:18.037Z;0;6.2630e+01;0;     0.065;  4581.080;  71214.945; 0;  71067.445;  71214.945;  73394.891;  68813.812;221;   4.942;  35.300;;; 319.732; 162.942;  17.302;   0.314;  -0.127;   4.943;   4.937;   0.898;   4.860;   0.027;;;;;;;;;;;;;;;;;;
2015-09-09T00:09:34.037Z;0;6.2700e+01;0;     0.063;  4581.080;  71255.359; 0;  71107.945;  71255.359;  73435.367;  68854.289;221;   4.943;  35.405;;; 319.836; 163.042;  17.305;   0.314;  -0.127;   4.943;   4.938;   0.894;   4.862;   0.027;;;;;;;;;;;;;;;;;;
2015-09-09T00:09:50.037Z;0;6.2820e+01;0;     0.068;  4581.080;  71322.797; 0;  71175.523;  71322.797;  73502.906;  68921.828;221;   4.944;  35.509;;; 319.940; 163.142;  17.308;   0.314;  -0.127;   4.944;   4.939;   0.890;   4.863;   0.027;;;;;;;;;;;;;;;;;;
2015-09-09T00:10:06.037Z;0;6.2550e+01;0;     0.067;  4572.680;  71170.742; 0;  71023.695;  71170.742;  73346.828;  68774.148;221;   4.945;  35.614;;; 320.043; 163.243;  17.311;   0.313;  -0.127;   4.945;   4.940;   0.887;   4.865;   0.027;;;;;;;;;;;;;;;;;;
2015-09-09T00:10:22.037Z;0;6.2580e+01;0;     0.064;  4572.680;  71185.078; 0;  71038.062;  71185.078;  73361.180;  68788.500;221;   4.946;  35.718;;; 320.147; 163.345;  17.314;   0.313;  -0.127;   4.946;   4.941;   0.883;   4.866;   0.027;;;;;;;;;;;;;;;;;;
2015-09-09T00:10:38.037Z;0;6.2940e+01;0;     0.065;  4572.680;  71391.047; 0;  71244.453;  71391.047;  73567.469;  68994.789;221;   4.947;  35.823;;; 320.251; 163.448;  17.317;   0.313;  -0.127;   4.947;   4.942;   0.879;   4.868;   0.027;;;;;;;;;;;;;;;;;;
2015-09-09T00:10:54.037Z;0;6.2480e+01;0;     0.068;  4572.680;  71131.281; 0;  70984.148;  71131.281;  73307.305;  68734.625;221;   4.948;  35.928;;; 320.355; 163.551;  17.320;   0.313;  -0.128;   4.948;   4.942;   0.876;   4.870;   0.027;;;;;;;;;;;;;;;;;;
2015-09-09T00:11:10.037Z;0;6.2260e+01;0;     0.069;  4565.204;  71005.828; 0;  70858.922;  71005.828;  73178.281;  68613.070;221;   4.948;  36.032;;; 320.459; 163.654;  17.323;   0.313;  -0.128;   4.949;   4.943;   0.872;   4.871;   0.027;;;;;;;;;;;;;;;;;;
2015-09-09T00:11:26.037Z;0;6.2630e+01;0;     0.073;  4565.204;  71213.258; 0;  71066.781;  71213.258;  73386.031;  68820.828;221;   4.949;  36.137;;; 320.563; 163.756;  17.326;   0.313;  -0.128;   4.949;   4.944;   0.868;   4.873;   0.027;;;;;;;;;;;;;;;;;;
2015-09-09T00:11:42.037Z;0;6.1990e+01;0;     0.071;  4565.204;  70851.195; 0;  70703.969;  70851.195;  73023.406;  68458.203;221;   4.950;  36.242;;; 320.667; 163.859;  17.329;   0.313;  -0.128;   4.950;   4.945;   0.864;   4.874;   0.027;;;;;;;;;;;;;;;;;;
2015-09-09T00:11:58.036Z;0;6.2230e+01;0;     0.069;  4565.204;  70989.023; 0;  70842.078;  70989.023;  73161.445;  68596.242;221;   4.951;  36.346;;; 320.770; 163.962;  17.332;   0.312;  -0.128;   4.951;   4.946;   0.861;   4.876;   0.027;;;;;;;;;;;;;;;;;;
2015-09-09T00:12:14.036Z;0;6.2730e+01;0;     0.072;  4556.804;  71271.508; 0;  71125.688;  71271.508;  73440.570;  68883.766;221;   4.952;  36.451;;; 320.874; 164.066;  17.335;   0.312;  -0.128;   4.952;   4.947;   0.857;   4.877;   0.027;;;;;;;;;;;;;;;;;;
2015-09-09T00:12:30.036Z;0;6.2330e+01;0;     0.072;  4556.804;  71045.086; 0;  70898.797;  71045.086;  73213.805;  68657.000;221;   4.953;  36.556;;; 320.978; 164.169;  17.338;   0.312;  -0.128;   4.953;   4.947;   0.853;   4.879;   0.027;;;;;;;;;;;;;;;;;;
2015-09-09T00:12:46.036Z;0;6.2290e+01;0;     0.070;  4556.804;  71018.594; 0;  70872.250;  71018.594;  73187.266;  68630.461;221;   4.954;  36.660;;; 321.082; 164.272;  17.341;   0.312;  -0.128;   4.954;   4.948;   0.850;   4.880;   0.027;;;;;;;;;;;;;;;;;;
2015-09-09T00:13:02.036Z;0;6.2020e+01;0;     0.076;  4549.944;  70865.055; 0;  70718.836;  70865.055;  73030.391;  68480.445;221;   4.954;  36.765;;; 321.186; 164.376;  17.344;   0.312;  -0.128;   4.955;   4.949;   0.846;   4.882;   0.027;;;;;;;;;;;;;;;;;;
2015-09-09T00:13:18.036Z;0;6.1770e+01;0;     0.079;  4549.944;  70724.062; 0;  70577.555;  70724.062;  72889.180;  68339.234;221;   4.955;  36.870;;; 321.290; 164.479;  17.348;   0.312;  -0.128;   4.955;   4.950;   0.842;   4.883;   0.027;;;;;;;;;;;;;;;;;;
2015-09-09T00:13:34.036Z;0;6.2040e+01;0;     0.076;  4549.944;  70875.398; 0;  70729.203;  70875.398;  73040.750;  68490.805;221;   4.956;  36.975;;; 321.394; 164.583;  17.351;   0.311;  -0.128;   4.956;   4.951;   0.838;   4.885;   0.027;;;;;;;;;;;;;;;;;;
2015-09-09T00:13:50.036Z;0;6.2440e+01;0;     0.073;  4549.944;  71106.453; 0;  70960.734;  71106.453;  73272.164;  68722.219;221;   4.957;  37.080;;; 321.498; 164.686;  17.354;   0.311;  -0.128;   4.957;   4.952;   0.835;   4.886;   0.027;;;;;;;;;;;;;;;;;;
2015-09-09T00:14:06.036Z;0;6.2590e+01;0;     0.076;  4542.328;  71186.492; 0;  71041.422;  71186.492;  73348.883;  68806.555;221;   4.958;  37.184;;; 321.602; 164.790;  17.357;   0.311;  -0.128;   4.958;   4.953;   0.831;   4.888;   0.027;;;;;;;;;;;;;;;;;;
2015-09-09T00:14:22.036Z;0;6.2370e+01;0;     0.074;  4542.328;  71063.898; 0;  70918.578;  71063.898;  73226.102;  68683.773;221;   4.959;  37.289;;; 321.706; 164.894;  17.360;   0.311;  -0.128;   4.959;   4.954;   0.827;   4.889;   0.027;;;;;;;;;;;;;;;;;;
2015-09-09T00:14:38.035Z;0;6.2110e+01;0;     0.076;  4542.328;  70918.281; 0;  70772.664;  70918.281;  73080.258;  68537.930;221;   4.960;  37.394;;; 321.810; 164.998;  17.363;   0.311;  -0.129;   4.960;   4.954;   0.824;   4.891;   0.027;;;;;;;;;;;;;;;;;;
2015-09-09T00:14:54.035Z;0;6.1880e+01;0;     0.078;  4542.328;  70788.812; 0;  70642.930;  70788.812;  72950.594;  68408.266;221;   4.960;  37.499;;; 321.914; 165.102;  17.366;   0.311;  -0.129;   4.961;   4.955;   0.820;   4.892;   0.027;;;;;;;;;;;;;;;;;;
2015-09-09T00:15:10.035Z;0;6.2380e+01;0;     0.075;  4532.108;  71066.781; 0;  70922.125;  71066.781;  73224.367;  68692.258;221;   4.961;  37.604;;; 322.018; 165.206;  17.369;   0.311;  -0.129;   4.961;   4.956;   0.816;   4.894;   0.027;;;;;;;;;;;;;;;;;;
2015-09-09T00:15:26.035Z;0;6.2750e+01;0;     0.073;  4532.108;  71281.039; 0;  71136.812;  71281.039;  73438.953;  68906.844;221;   4.962;  37.709;;; 322.122; 165.310;  17.372;   0.310;  -0.129;   4.962;   4.957;   0.812;   4.895;   0.027;;;;;;;;;;;;;;;;;;
2015-09-09T00:15:42.035Z;0;6.2480e+01;0;     0.071;  4532.108;  71125.508; 0;  70980.969;  71125.508;  73283.188;  68751.078;221;   4.963;  37.814;;; 322.227; 165.414;  17.375;   0.310;  -0.129;   4.963;   4.958;   0.809;   4.897;   0.027;;;;;;;;;;;;;;;;;;
2015-09-09T00:15:58.035Z;0;6.2780e+01;0;     0.072;  4532.108;  71298.414; 0;  71154.227;  71298.414;  73456.352;  68924.250;221;   4.964;  37.919;;; 322.331; 165.519;  17.378;   0.310;  -0.129;   4.964;   4.959;   0.805;   4.898;   0.027;;;;;;;;;;;;;;;;;;
2015-09-09T00:16:14.035Z;0;6.2050e+01;0;     0.076;  4524.268;  70879.969; 0;  70735.430;  70879.969;  73033.727;  68509.461;221;   4.965;  38.024;;; 322.435; 165.623;  17.381;   0.310;  -0.129;   4.965;   4.960;   0.801;   4.900;   0.027;;;;;;;;;;;;;;;;;;
2015-09-09T00:16:30.035Z;0;6.2130e+01;0;     0.073;  4524.268;  70924.844; 0;  70780.398;  70924.844;  73078.672;  68554.398;221;   4.966;  38.129;;; 322.539; 165.728;  17.384;   0.310;  -0.129;   4.966;   4.960;   0.797;   4.901;   0.027;;;;;;;;;;;;;;;;;;
2015-09-09T00:16:46.035Z;0;6.2040e+01;0;     0.073;  4524.268;  70878.289; 0;  70733.750;  70878.289;  73032.047;  68507.773;221;   4.967;  38.234;;; 322.643; 165.832;  17.387;   0.310;  -0.129;   4.967;   4.961;   0.794;   4.903;   0.027;;;;;;;;;;;;;;;;;;
2015-09-09T00:17:02.035Z;0;6.2040e+01;0;     0.076;  4517.800;  70875.492; 0;  70731.359;  70875.492;  73026.320;  68508.516;221;   4.967;  38.339;;; 322.747; 165.937;  17.390;   0.309;  -0.129;   4.968;   4.962;   0.790;   4.904;   0.027;;;;;;;;;;;;;;;;;;
2015-09-09T00:17:18.034Z;0;6.2120e+01;0;     0.076;  4517.800;  70920.680; 0;  70776.633;  70920.680;  73071.578;  68553.773;221;   4.968;  38.444;;; 322.852; 166.042;  17.393;   0.309;  -0.129;   4.968;   4.963;   0.786;   4.906;   0.027;;;;;;;;;;;;;;;;;;
2015-09-09T00:17:34.034Z;0;6.2620e+01;0;     0.073;  4517.800;  71202.398; 0;  71058.930;  71202.398;  73353.719;  68835.922;221;   4.969;  38.549;;; 322.956; 166.147;  17.396;   0.309;  -0.129;   4.969;   4.964;   0.783;   4.907;   0.027;;;;;;;;;;;;;;;;;;
2015-09-09T00:17:50.034Z;0;6.2120e+01;0;     0.073;  4517.800;  70923.211; 0;  70779.172;  70923.211;  73074.109;  68556.312;221;   4.970;  38.654;;; 323.060; 166.252;  17.399;   0.309;  -0.129;   4.970;   4.965;   0.779;   4.909;   0.027;;;;;;;;;;;;;;;;;;
2015-09-09T00:18:22.034Z;0;6.1380e+01;0;     0.076;  4509.764;  70496.828; 0;  70352.430;  70496.828;  72643.445;  68133.680;221;   4.972;  38.864;;; 323.269; 166.462;  17.405;   0.309;  -0.130;   4.972;   4.967;   0.771;   4.912;   0.027;;;;;;;;;;;;;;;;;;
2015-09-09T00:18:38.034Z;0;6.2430e+01;0;     0.074;  4509.764;  71096.062; 0;  70952.883;  71096.062;  73243.586;  68733.828;221;   4.973;  38.969;;; 323.373; 166.567;  17.408;   0.309;  -0.130;   4.973;   4.968;   0.768;   4.913;   0.027;;;;;;;;;;;;;;;;;;
2015-09-09T00:18:54.034Z;0;6.2500e+01;0;     0.074;  4509.764;  71134.320; 0;  70991.219;  71134.320;  73281.906;  68772.141;221;   4.974;  39.074;;; 323.477; 166.672;  17.411;   0.308;  -0.130;   4.974;   4.968;   0.764;   4.915;   0.027;;;;;;;;;;;;;;;;;;
2015-09-09T00:19:10.034Z;0;6.2290e+01;0;     0.075;  4502.120;  71016.398; 0;  70873.547;  71016.398;  73160.344;  68658.227;221;   4.974;  39.179;;; 323.581; 166.778;  17.414;   0.308;  -0.130;   4.975;   4.969;   0.760;   4.916;   0.027;;;;;;;;;;;;;;;;;;
2015-09-09T00:19:26.034Z;0;6.2190e+01;0;     0.074;  4502.120;  70961.648; 0;  70818.688;  70961.648;  73105.516;  68603.398;221;   4.975;  39.284;;; 323.686; 166.883;  17.417;   0.308;  -0.130;   4.976;   4.970;   0.756;   4.918;   0.027;;;;;;;;;;;;;;;;;;
2015-09-09T00:19:42.034Z;0;6.1930e+01;0;     0.074;  4502.120;  70812.336; 0;  70669.070;  70812.336;  72955.977;  68453.859;221;   4.976;  39.389;;; 323.790; 166.989;  17.420;   0.308;  -0.130;   4.976;   4.971;   0.753;   4.919;   0.027;;;;;;;;;;;;;;;;;;
2015-09-09T00:19:58.033Z;0;6.1570e+01;0;     0.075;  4502.120;  70609.492; 0;  70465.820;  70609.492;  72752.820;  68250.703;221;   4.977;  39.495;;; 323.895; 167.094;  17.423;   0.308;  -0.130;   4.977;   4.972;   0.749;   4.921;   0.027;;;;;;;;;;;;;;;;;;
2015-09-09T00:20:14.033Z;0;6.2070e+01;0;     0.073;  4492.992;  70889.352; 0;  70746.828;  70889.352;  73028.977;  68535.984;221;   4.978;  39.600;;; 323.999; 167.198;  17.426;   0.308;  -0.130;   4.978;   4.973;   0.745;   4.922;   0.027;;;;;;;;;;;;;;;;;;
2015-09-09T00:20:30.033Z;0;6.2290e+01;0;     0.072;  4492.992;  71017.070; 0;  70874.797;  71017.070;  73156.891;  68663.898;221;   4.979;  39.705;;; 324.103; 167.301;  17.429;   0.307;  -0.130;   4.979;   4.974;   0.742;   4.923;   0.027;;;;;;;;;;;;;;;;;;
2015-09-09T00:20:46.033Z;0;6.2160e+01;0;     0.076;  4492.992;  70944.727; 0;  70802.312;  70944.727;  73084.438;  68591.445;221;   4.980;  39.810;;; 324.208; 167.404;  17.432;   0.307;  -0.130;   4.980;   4.975;   0.738;   4.925;   0.027;;;;;;;;;;;;;;;;;;
2015-09-09T00:21:02.033Z;0;6.0930e+01;0;     0.080;  4485.712;  70239.195; 0;  70095.812;  70239.195;  72374.539;  67888.828;221;   4.981;  39.915;;; 324.312; 167.506;  17.435;   0.307;  -0.130;   4.981;   4.976;   0.734;   4.926;   0.027;;;;;;;;;;;;;;;;;;
2015-09-09T00:21:18.033Z;0;6.1500e+01;0;     0.080;  4485.712;  70566.359; 0;  70423.641;  70566.359;  72702.203;  68216.492;221;   4.982;  40.021;;; 324.417; 167.609;  17.438;   0.307;  -0.131;   4.982;   4.976;   0.730;   4.928;   0.027;;;;;;;;;;;;;;;;;;
2015-09-09T00:21:34.033Z;0;6.1520e+01;0;     0.078;  4485.712;  70578.039; 0;  70435.344;  70578.039;  72713.906;  68228.188;221;   4.983;  40.126;;; 324.521; 167.712;  17.441;   0.307;  -0.131;   4.983;   4.977;   0.727;   4.929;   0.027;;;;;;;;;;;;;;;;;;
2015-09-09T00:21:50.033Z;0;6.1530e+01;0;     0.078;  4485.712;  70582.094; 0;  70439.406;  70582.094;  72717.961;  68232.250;221;   4.983;  40.231;;; 324.626; 167.815;  17.444;   0.307;  -0.131;   4.984;   4.978;   0.723;   4.931;   0.027;;;;;;;;;;;;;;;;;;
2015-09-09T00:22:06.033Z;0;6.2010e+01;0;     0.075;  4474.876;  70854.703; 0;  70713.258;  70854.703;  72986.078;  68511.203;221;   4.984;  40.337;;; 324.730; 167.917;  17.447;   0.307;  -0.131;   4.984;   4.979;   0.719;   4.932;   0.027;;;;;;;;;;;;;;;;;;
2015-09-09T00:22:22.033Z;0;6.2130e+01;0;     0.072;  4474.876;  70923.141; 0;  70781.828;  70923.141;  73054.625;  68579.742;221;   4.985;  40.442;;; 324.835; 168.020;  17.450;   0.306;  -0.131;   4.985;   4.980;   0.715;   4.934;   0.027;;;;;;;;;;;;;;;;;;
2015-09-09T00:22:38.032Z;0;6.2280e+01;0;     0.072;  4474.876;  71011.102; 0;  70869.969;  71011.102;  73142.711;  68667.836;221;   4.986;  40.547;;; 324.939; 168.122;  17.453;   0.306;  -0.131;   4.986;   4.981;   0.712;   4.935;   0.027;;;;;;;;;;;;;;;;;;
2015-09-09T00:22:54.032Z;0;6.1400e+01;0;     0.079;  4474.876;  70510.266; 0;  70368.125;  70510.266;  72641.125;  68166.250;221;   4.987;  40.653;;; 325.044; 168.225;  17.456;   0.306;  -0.131;   4.987;   4.982;   0.708;   4.937;   0.027;;;;;;;;;;;;;;;;;;
2015-09-09T00:23:10.032Z;0;6.0630e+01;0;     0.081;  4467.036;  70062.883; 0;  69920.336;  70062.883;  72189.516;  67722.484;221;   4.988;  40.758;;; 325.148; 168.327;  17.459;   0.306;  -0.131;   4.988;   4.983;   0.704;   4.938;   0.027;;;;;;;;;;;;;;;;;;